Wind_Speed
33 31 29 28 27 27 30 30 28 30 32 31 33 36 37 36 34 33 32 30 29 28 26 24 22 20 18 16 14 11 9 7 5 3 2 3 4 4 5 5 6 7
31 28 28 28 28 29 31 28 26 29 31 31 34 37 37 36 35 33 32 31 30 28 26 24 22 20 17 15 13 11 9 7 5 3 1 2 3 4 5 6 7 8
29 28 29 29 29 29 28 26 27 29 31 33 37 38 37 36 35 34 33 32 31 29 27 25 22 20 18 16 14 12 9 7 5 3 1 2 3 4 6 7 8 8
30 30 31 31 30 28 26 27 30 32 33 37 40 40 38 37 36 35 34 33 31 29 27 25 23 21 19 17 14 12 10 8 6 3 2 3 5 6 7 8 9 9
31 32 33 33 31 28 28 29 31 34 36 39 41 41 39 38 37 36 35 34 32 30 28 26 24 22 19 18 15 13 11 9 6 4 3 4 7 8 9 9 10 10
31 33 34 34 31 27 29 30 32 35 38 41 43 42 40 38 37 37 35 34 32 30 28 26 24 22 20 19 16 14 12 10 7 5 5 6 7 9 10 10 11 11
32 32 33 33 31 30 32 32 33 37 40 43 44 42 40 39 38 37 36 34 32 30 28 26 24 23 21 20 17 15 13 11 8 7 6 6 8 10 10 11 11 11
33 33 34 35 34 34 35 33 34 38 42 45 45 43 41 40 38 37 36 34 32 30 29 27 25 23 22 20 18 16 14 12 10 8 7 7 8 10 11 12 12 13
36 35 35 36 36 37 36 34 35 39 44 46 46 44 42 40 39 38 36 34 33 31 29 27 25 24 22 20 18 16 14 12 10 9 8 8 9 10 11 12 13 13
39 38 37 37 37 37 36 34 35 41 46 48 47 45 43 41 40 38 36 35 33 31 29 27 26 25 23 21 19 17 15 13 11 10 9 9 10 11 11 12 13 14
39 39 39 38 36 36 35 34 36 42 47 49 48 45 44 42 40 39 37 35 33 31 29 27 26 25 23 22 20 18 16 14 13 11 10 10 10 11 12 13 14 14
39 39 39 38 37 36 35 34 37 43 48 50 48 46 44 42 41 39 37 35 33 31 30 28 26 25 24 23 21 19 17 15 14 13 11 11 11 12 13 14 15 15
40 39 38 37 36 36 34 34 37 44 49 50 48 45 44 42 40 39 37 35 34 32 31 29 27 26 25 23 22 20 18 17 15 14 12 11 12 13 14 15 16 16
40 38 36 35 35 35 34 34 38 44 49 49 47 45 44 42 40 39 37 37 35 33 32 29 28 27 26 24 23 21 20 19 16 15 13 13 14 14 15 16 17 17
39 38 37 36 36 35 34 35 39 44 48 49 47 45 44 42 40 40 39 38 36 34 32 30 29 28 26 25 24 23 22 20 17 16 16 16 16 16 17 18 18 19
38 38 38 37 37 35 34 35 39 44 48 49 47 45 44 43 42 41 40 39 37 35 33 32 30 29 27 26 25 24 23 20 18 18 19 19 18 19 19 19 19 20
37 38 39 38 37 36 35 35 37 43 47 49 47 45 45 44 43 43 41 39 38 36 34 33 31 30 29 28 27 26 24 21 20 20 22 22 22 22 22 22 22 23
37 37 38 39 38 37 36 34 35 40 45 48 48 46 45 45 44 43 42 41 40 38 36 34 32 30 30 29 28 27 25 23 22 23 25 25 25 25 24 24 25 25
38 37 37 38 38 37 37 36 35 38 42 46 48 47 47 46 45 44 43 42 41 39 36 34 33 32 31 30 29 28 26 24 24 26 28 28 28 28 27 26 27 27
39 38 37 37 38 37 38 38 37 37 40 44 47 49 49 48 47 46 45 43 41 39 36 35 34 33 32 31 30 28 27 26 26 30 31 31 30 30 29 28 29 30
39 38 37 38 38 39 39 39 38 38 40 43 47 50 50 49 47 46 45 43 41 39 37 37 36 34 33 32 31 29 28 28 30 33 34 34 33 32 31 31 32 32
38 37 37 37 38 38 38 38 38 38 39 41 45 48 49 48 46 46 45 43 41 39 38 38 37 35 34 33 31 31 31 32 34 36 37 37 36 33 33 34 34 34
36 36 36 37 37 37 37 36 36 36 37 38 40 43 46 47 47 46 45 43 40 40 40 39 38 36 34 33 33 33 34 35 38 40 40 39 37 35 36 36 36 36
32 33 34 35 35 34 34 33 32 32 33 33 34 37 41 43 44 44 43 42 42 42 41 40 38 36 35 35 36 35 36 38 41 43 42 41 39 37 37 38 38 38
25 27 29 30 31 31 30 29 29 29 29 29 30 32 35 39 41 42 43 44 43 42 40 40 39 38 37 38 37 36 39 43 45 45 45 44 41 40 40 40 41 41
19 21 23 24 25 26 26 26 26 25 25 25 26 28 30 33 36 39 41 41 39 39 39 40 41 40 39 38 38 39 43 46 47 47 47 46 44 43 43 43 44 44
Wind_Direction
217 221 232 238 234 227 223 222 219 215 213 210 203 195 188 186 186 186 185 185 184 183 183 182 181 181 180 176 172 169 169 166 154 135 85 26 360 344 326 298 274 261
219 226 231 228 224 220 218 221 224 220 216 212 203 196 192 190 189 189 188 186 185 185 185 184 184 182 181 179 176 176 175 171 163 154 92 356 331 318 304 282 264 254
228 230 225 222 219 217 217 221 226 222 217 211 203 198 195 193 192 191 190 189 188 187 187 186 186 184 182 181 181 181 180 176 173 175 231 299 284 281 274 263 255 249
232 227 222 219 214 215 222 227 226 221 215 210 204 200 198 196 195 194 192 191 190 189 189 188 188 187 185 185 187 187 185 183 185 196 241 263 261 258 253 250 249 248
230 227 223 217 212 219 228 229 227 222 216 210 205 202 201 198 197 197 195 194 192 192 192 191 191 190 189 190 192 193 192 191 196 209 239 254 254 251 245 242 245 248
227 227 222 216 217 226 231 230 228 223 217 212 207 204 202 201 200 200 199 196 194 195 195 195 194 194 194 195 196 197 196 199 208 220 239 252 255 252 246 241 243 246
225 223 221 220 226 231 233 233 228 222 218 213 208 206 205 204 203 203 202 199 198 198 198 199 199 198 199 200 201 202 201 205 216 228 244 256 257 254 249 245 245 246
223 223 225 227 230 231 232 233 227 221 218 212 209 208 207 206 206 205 204 202 202 201 201 201 202 203 204 205 206 207 209 213 222 234 249 256 257 255 251 249 248 248
224 224 227 229 230 231 233 233 227 220 216 212 210 209 209 208 208 207 206 205 204 205 204 204 205 206 208 210 211 212 215 220 228 239 250 255 255 255 252 251 251 250
227 225 226 229 230 230 233 233 226 219 215 212 210 210 210 209 209 209 208 208 207 207 207 207 208 210 212 214 215 216 219 226 233 242 250 253 254 256 256 254 252 252
229 228 227 228 230 230 233 233 225 217 214 212 211 211 212 211 210 210 210 210 211 211 211 211 212 215 217 218 219 220 222 228 237 245 250 253 256 260 260 257 254 254
229 231 230 229 230 231 233 232 224 217 215 213 212 213 213 212 212 212 212 213 214 215 215 215 216 218 221 222 223 225 227 232 240 247 251 254 260 264 263 261 259 257
229 232 232 230 231 233 235 232 223 218 216 214 214 214 214 214 215 215 215 216 217 217 217 217 219 221 224 225 226 229 233 238 243 248 253 260 265 266 264 262 262 261
230 232 232 231 233 235 235 231 224 219 217 216 216 216 217 217 217 218 219 219 219 219 219 219 221 224 227 228 230 232 236 240 245 249 258 266 267 266 264 264 265 265
229 231 231 231 233 235 235 231 225 220 218 218 218 219 219 219 219 221 222 222 221 221 221 222 224 227 230 232 235 237 239 242 245 252 264 270 267 264 265 266 267 268
230 231 231 230 232 235 235 232 226 222 220 220 220 221 221 221 221 223 224 224 225 224 224 225 227 229 233 235 237 238 240 243 246 255 267 272 268 266 266 268 270 270
231 232 232 232 233 235 236 233 229 225 223 223 223 223 223 223 224 225 226 226 227 228 228 229 231 233 236 237 237 238 239 241 248 259 270 274 273 269 268 270 271 268
233 234 235 235 235 236 237 235 232 229 227 226 226 226 226 227 227 228 228 229 229 230 231 232 235 237 239 239 237 238 239 242 250 263 272 278 277 272 271 273 270 266
235 235 236 236 237 238 239 237 234 231 230 229 228 229 230 230 230 230 231 231 231 232 233 235 238 240 240 240 239 240 242 244 253 267 275 280 280 276 275 275 270 264
235 236 237 237 238 239 239 238 235 233 232 231 230 230 231 232 232 233 233 233 233 234 236 239 242 241 241 241 241 243 244 247 259 272 277 281 284 281 278 275 268 263
235 237 238 239 239 239 239 239 238 236 235 233 232 231 231 232 233 235 236 237 237 238 241 244 244 242 242 242 244 246 246 251 266 275 277 282 285 283 278 273 265 261
236 237 238 240 239 239 240 240 240 239 238 237 235 233 233 233 235 237 239 239 240 242 246 248 246 244 244 244 246 247 247 255 270 277 277 281 286 283 277 270 264 262
237 237 239 240 240 240 241 242 243 243 242 241 239 237 236 235 236 238 239 240 243 247 250 251 249 247 247 248 249 249 249 259 273 278 278 281 283 282 276 268 263 264
239 239 241 243 244 244 245 246 247 247 247 246 244 243 240 239 239 240 240 242 247 251 252 252 252 251 251 251 252 250 250 262 274 278 278 278 279 278 274 268 265 267
242 243 245 246 248 249 249 250 250 250 250 249 248 247 245 243 243 243 244 248 251 253 253 253 253 253 253 254 254 251 254 265 274 276 275 275 275 275 273 268 266 268
241 243 245 247 249 250 250 251 251 252 254 255 255 255 254 253 252 252 252 254 254 254 253 252 253 255 255 256 255 254 258 266 271 272 272 273 272 273 272 270 269 270
Height
1524 1526 1528 1530 1532 1533 1535 1537 1540 1542 1544 1545 1547 1549 1551 1553 1555 1557 1558 1560 1562 1564 1565 1566 1567 1568 1569 1570 1571 1572 1573 1573 1574 1574 1574 1575 1575 1576 1576 1576 1576 1577
1522 1524 1526 1528 1529 1531 1533 1536 1538 1540 1542 1544 1547 1548 1550 1552 1553 1555 1557 1558 1560 1562 1563 1564 1565 1566 1567 1568 1569 1570 1571 1571 1571 1572 1572 1573 1573 1574 1574 1575 1574 1574
1520 1522 1524 1526 1527 1530 1532 1535 1537 1538 1541 1543 1545 1547 1548 1550 1552 1553 1555 1557 1558 1560 1561 1562 1563 1564 1565 1566 1567 1568 1569 1569 1569 1570 1570 1571 1572 1573 1573 1573 1573 1573
1518 1520 1522 1524 1527 1529 1531 1533 1535 1536 1538 1540 1542 1545 1546 1548 1550 1551 1553 1555 1556 1558 1559 1560 1561 1562 1563 1564 1565 1566 1566 1567 1567 1567 1568 1569 1570 1571 1572 1572 1572 1572
1517 1519 1520 1523 1525 1527 1529 1531 1533 1534 1536 1538 1540 1543 1544 1546 1548 1549 1551 1552 1554 1556 1557 1558 1560 1560 1561 1562 1563 1564 1564 1564 1565 1565 1566 1567 1569 1570 1570 1571 1571 1571
1514 1516 1518 1520 1522 1524 1526 1528 1530 1532 1534 1537 1539 1541 1543 1544 1546 1547 1549 1551 1552 1554 1555 1556 1557 1558 1560 1561 1561 1562 1562 1562 1562 1563 1564 1565 1567 1568 1569 1569 1570 1570
1511 1513 1515 1517 1519 1521 1524 1525 1527 1529 1532 1535 1537 1539 1541 1542 1544 1546 1548 1549 1551 1552 1553 1554 1556 1556 1557 1559 1559 1559 1560 1560 1560 1561 1562 1563 1565 1566 1567 1568 1568 1569
1507 1510 1512 1514 1516 1518 1520 1522 1524 1527 1529 1532 1535 1537 1539 1540 1542 1544 1546 1548 1549 1550 1551 1553 1554 1555 1556 1557 1557 1558 1558 1558 1558 1559 1560 1561 1563 1564 1564 1565 1566 1567
1504 1506 1508 1510 1512 1514 1516 1518 1521 1524 1527 1529 1532 1534 1536 1538 1540 1542 1544 1545 1547 1548 1550 1551 1552 1553 1554 1555 1556 1556 1556 1557 1557 1557 1558 1559 1561 1561 1562 1563 1563 1564
1500 1502 1504 1506 1509 1511 1513 1516 1518 1520 1523 1526 1529 1531 1533 1536 1538 1540 1542 1543 1545 1546 1548 1549 1551 1552 1553 1554 1555 1555 1555 1555 1556 1556 1556 1557 1559 1559 1560 1561 1561 1562
1497 1499 1501 1503 1506 1508 1511 1513 1515 1518 1521 1523 1526 1528 1531 1533 1535 1538 1539 1541 1543 1545 1547 1548 1549 1551 1552 1553 1554 1554 1554 1554 1554 1555 1555 1556 1557 1557 1558 1559 1559 1559
1495 1496 1498 1501 1504 1506 1508 1511 1513 1515 1518 1521 1524 1526 1529 1531 1533 1536 1538 1540 1542 1543 1545 1546 1548 1549 1551 1552 1552 1553 1553 1553 1553 1553 1554 1554 1555 1556 1557 1557 1557 1557
1492 1494 1497 1500 1502 1504 1506 1509 1511 1514 1516 1519 1522 1525 1527 1530 1532 1534 1536 1538 1540 1541 1543 1545 1546 1548 1549 1550 1551 1552 1552 1553 1552 1552 1553 1553 1554 1555 1555 1556 1556 1556
1489 1492 1495 1498 1500 1502 1504 1506 1509 1511 1515 1518 1521 1523 1526 1528 1530 1533 1534 1535 1537 1539 1541 1543 1544 1546 1547 1548 1549 1551 1551 1551 1551 1551 1551 1552 1552 1553 1554 1554 1554 1554
1486 1489 1492 1495 1497 1499 1501 1503 1506 1509 1513 1515 1518 1521 1524 1526 1529 1530 1531 1533 1535 1537 1539 1540 1542 1544 1545 1547 1548 1549 1550 1550 1550 1550 1550 1550 1551 1551 1552 1552 1552 1552
1483 1486 1489 1492 1494 1496 1499 1501 1504 1507 1510 1513 1516 1519 1521 1523 1525 1527 1528 1531 1532 1534 1536 1537 1539 1541 1543 1545 1546 1547 1548 1548 1548 1548 1548 1548 1548 1549 1549 1550 1550 1549
1480 1483 1486 1489 1491 1494 1496 1499 1502 1505 1508 1511 1514 1517 1519 1520 1522 1523 1526 1528 1530 1531 1533 1534 1537 1539 1540 1542 1543 1544 1545 1545 1545 1545 1545 1546 1546 1546 1547 1547 1547 1547
1478 1481 1484 1486 1489 1492 1494 1497 1500 1503 1505 1509 1511 1514 1516 1517 1519 1521 1523 1525 1526 1528 1530 1532 1534 1537 1538 1540 1541 1542 1543 1543 1543 1543 1543 1543 1543 1543 1544 1544 1544 1544
1475 1478 1481 1484 1486 1489 1492 1494 1496 1499 1502 1505 1508 1511 1513 1515 1517 1519 1521 1522 1523 1525 1527 1530 1532 1534 1536 1537 1538 1540 1541 1541 1541 1541 1540 1540 1540 1540 1540 1540 1540 1540
1472 1475 1478 1480 1483 1486 1488 1490 1492 1495 1498 1501 1504 1506 1508 1511 1514 1516 1518 1520 1521 1523 1525 1527 1530 1532 1533 1535 1536 1537 1538 1538 1538 1538 1537 1537 1537 1537 1537 1537 1536 1537
1468 1472 1474 1477 1479 1482 1484 1486 1489 1491 1494 1496 1499 1501 1504 1507 1510 1513 1516 1518 1520 1521 1523 1525 1527 1529 1531 1532 1534 1535 1536 1535 1535 1534 1534 1534 1533 1533 1533 1533 1533 1533
1466 1469 1471 1474 1476 1478 1481 1483 1485 1488 1490 1493 1495 1498 1500 1504 1507 1510 1513 1515 1517 1518 1520 1522 1524 1526 1528 1530 1531 1532 1532 1532 1531 1531 1530 1529 1529 1529 1529 1529 1529 1529
1464 1467 1469 1471 1474 1476 1478 1480 1483 1485 1488 1490 1493 1495 1498 1501 1504 1507 1509 1511 1513 1515 1517 1519 1521 1523 1525 1527 1528 1529 1529 1528 1527 1526 1526 1525 1525 1525 1525 1525 1525 1525
1462 1466 1468 1470 1473 1475 1477 1479 1481 1484 1486 1488 1491 1493 1495 1498 1501 1503 1505 1507 1509 1512 1514 1516 1518 1521 1523 1524 1524 1525 1525 1524 1523 1522 1521 1520 1521 1521 1521 1521 1521 1521
1461 1464 1467 1469 1472 1474 1476 1478 1480 1482 1484 1486 1488 1490 1493 1496 1498 1500 1501 1503 1505 1508 1511 1513 1515 1517 1519 1520 1521 1521 1521 1520 1519 1517 1516 1516 1516 1517 1517 1516 1516 1516
1459 1462 1465 1468 1470 1473 1475 1477 1478 1480 1481 1483 1485 1487 1489 1492 1494 1495 1497 1499 1502 1504 1506 1509 1511 1513 1515 1516 1517 1517 1517 1516 1515 1512 1511 1511 1512 1512 1512 1511 1511 1512